Date String (YYYY-MM-DD hh:mm:ss) UTC,Instrument flags,Ambient pressure (hPa),Sample flow (lpm),Bypass flow (lpm),Sample temperature (°C),Ambient temperature (°C),ASC tube jacket temperature (°C),LED temperature (°C),Box temperature (°C),Sample RH (%),Mass concentration (μg/m³),Mass concentration (μg/m³)
DateTimeUTC,F1_M11,P_M11,Q1_M11,Q2_M11,T1_M11,T2_M11,T3_M11,T4_M11,T5_M11,U1_M11,X0_M11,X2_M11
2021-08-16 21:00:00,,0827.1,5.00,0.00,28.7,26.7,00.0,37.8,30.5,19.5,0026.36,0018.81
2021-08-16 21:01:00,,0827.0,4.99,0.00,28.8,27.1,00.0,37.8,30.6,19.6,0026.92,0018.89
2021-08-16 21:02:00,,0827.1,4.99,0.00,28.8,27.5,00.0,37.8,30.8,19.6,0026.97,0018.98
2021-08-16 21:03:00,,0827.0,5.00,0.00,28.9,27.8,00.0,37.8,30.9,18.9,0027.73,0019.10
2021-08-16 21:04:00,,0827.0,5.00,0.00,29.0,27.8,00.0,37.9,30.9,18.9,0028.47,0019.25
2021-08-16 21:05:00,,0827.1,5.00,0.00,28.9,26.6,00.0,37.9,30.5,19.4,0028.70,0019.35
2021-08-16 21:06:00,,0827.0,5.00,0.00,28.8,25.6,00.0,37.9,30.2,19.0,0029.15,0019.52
2021-08-16 21:07:00,,0827.0,5.00,0.00,28.8,26.0,00.0,37.9,30.3,19.1,0029.22,0019.57
2021-08-16 21:08:00,,0827.0,4.99,0.00,28.7,26.4,00.0,37.8,30.4,19.4,0029.42,0019.59
2021-08-16 21:09:00,,0827.0,5.01,0.00,28.8,26.8,00.0,37.8,30.5,19.2,0029.55,0019.61
2021-08-16 21:10:00,,0827.0,5.00,0.00,28.8,27.2,00.0,37.8,30.7,19.1,0029.54,0019.64
2021-08-16 21:11:00,,0827.0,5.00,0.00,28.9,27.5,00.0,37.9,30.8,19.1,0029.31,0019.71
2021-08-16 21:12:00,,0826.9,4.99,0.00,29.0,27.9,00.0,37.9,30.9,18.9,0029.13,0019.72
2021-08-16 21:13:00,,0826.9,5.02,0.00,29.0,27.4,00.0,37.9,30.8,19.0,0029.71,0019.71
2021-08-16 21:14:00,,0826.9,5.00,0.00,28.9,25.9,00.0,37.9,30.3,18.9,0028.75,0019.67
2021-08-16 21:15:00,,0826.9,5.00,0.00,28.8,25.8,00.0,37.9,30.3,19.4,0028.10,0019.63
2021-08-16 21:16:00,,0827.1,5.00,0.00,28.8,26.2,00.0,37.9,30.4,19.4,0027.76,0019.66
2021-08-16 21:17:00,,0826.9,5.00,0.00,28.8,26.7,00.0,37.8,30.5,19.4,0027.99,0019.60
2021-08-16 21:18:00,,0827.0,4.99,0.00,28.8,27.1,00.0,37.8,30.6,19.7,0027.95,0019.67
2021-08-16 21:19:00,,0826.9,5.01,0.00,28.9,27.4,00.0,37.9,30.8,19.1,0027.58,0019.77
2021-08-16 21:20:00,,0826.9,4.99,0.00,28.9,27.7,00.0,37.9,30.9,18.9,0027.68,0019.85
2021-08-16 21:21:00,,0827.0,5.01,0.00,29.0,27.3,00.0,37.9,30.7,18.9,0028.11,0019.97
2021-08-16 21:22:00,,0827.0,5.00,0.00,28.9,25.8,00.0,37.9,30.3,19.3,0028.23,0020.05
2021-08-16 21:23:00,,0826.9,4.99,0.00,28.7,25.7,00.0,37.9,30.2,19.1,0028.64,0020.13
2021-08-16 21:24:00,,0826.8,5.02,0.00,28.7,26.1,00.0,37.8,30.3,19.0,0028.51,0020.22
2021-08-16 21:25:00,,0826.7,4.98,0.00,28.7,26.6,00.0,37.8,30.4,19.3,0028.63,0020.25
2021-08-16 21:26:00,,0826.7,5.01,0.00,28.8,27.0,00.0,37.8,30.6,19.2,0028.58,0020.29
2021-08-16 21:27:00,,0826.8,5.00,0.00,28.8,27.4,00.0,37.8,30.7,19.2,0028.73,0020.35
2021-08-16 21:28:00,,0826.8,5.00,0.00,28.9,27.7,00.0,37.9,30.9,18.9,0028.18,0020.47
2021-08-16 21:29:00,,0826.7,5.01,0.00,29.0,27.9,00.0,37.9,30.9,18.8,0028.04,0020.56
2021-08-16 21:30:00,,0826.7,5.00,0.00,29.0,26.7,00.0,37.9,30.6,19.0,0028.42,0020.68
2021-08-16 21:31:00,,0826.7,4.99,0.00,28.8,25.6,00.0,37.9,30.2,18.7,0028.45,0020.84
2021-08-16 21:32:00,,0826.7,4.99,0.00,28.8,26.0,00.0,37.9,30.3,18.8,0029.58,0020.97
2021-08-16 21:33:00,,0826.6,5.01,0.00,28.7,26.4,00.0,37.8,30.4,19.1,0030.12,0021.06
2021-08-16 21:34:00,,0826.7,4.99,0.00,28.8,26.8,00.0,37.8,30.5,18.6,0030.41,0021.18
2021-08-16 21:35:00,,0826.7,5.01,0.00,28.8,27.2,00.0,37.8,30.7,18.6,0030.29,0021.33
2021-08-16 21:36:00,,0826.6,5.00,0.00,28.9,27.5,00.0,37.8,30.8,18.9,0030.35,0021.47
2021-08-16 21:37:00,,0826.6,4.99,0.00,29.0,27.7,00.0,37.9,30.9,18.8,0030.76,0021.59
2021-08-16 21:38:00,,0826.5,5.00,0.00,28.9,26.5,00.0,37.9,30.5,19.0,0031.05,0021.65
2021-08-16 21:39:00,,0826.5,5.01,0.00,28.8,25.6,00.0,37.8,30.2,19.1,0031.32,0021.65
2021-08-16 21:40:00,,0826.5,5.00,0.00,28.7,25.9,00.0,37.8,30.3,19.1,0032.54,0021.71
2021-08-16 21:41:00,,0826.5,5.00,0.00,28.7,26.3,00.0,37.8,30.4,19.0,0032.93,0021.75
2021-08-16 21:42:00,,0826.5,4.99,0.00,28.8,26.8,00.0,37.8,30.5,19.0,0033.93,0021.72
2021-08-16 21:43:00,,0826.5,5.01,0.00,28.8,27.2,00.0,37.8,30.7,18.7,0034.21,0021.65
2021-08-16 21:44:00,,0826.5,5.00,0.00,28.9,27.5,00.0,37.8,30.8,19.1,0033.75,0021.64
2021-08-16 21:45:00,,0826.5,4.99,0.00,28.9,27.8,00.0,37.8,30.9,18.9,0033.37,0021.63
2021-08-16 21:46:00,,0826.5,5.00,0.00,29.0,28.0,00.0,37.9,31.0,19.2,0033.90,0021.52
2021-08-16 21:47:00,,0826.5,5.01,0.00,29.0,26.9,00.0,37.9,30.7,19.0,0035.23,0021.46
2021-08-16 21:48:00,,0826.5,5.00,0.00,28.9,25.7,00.0,37.9,30.4,18.5,0035.56,0021.40
2021-08-16 21:49:00,,0826.5,5.01,0.00,28.8,26.0,00.0,37.9,30.4,18.7,0035.50,0021.39
2021-08-16 21:50:00,,0826.5,5.00,0.00,28.8,26.4,00.0,37.9,30.5,18.9,0035.90,0021.44
2021-08-16 21:51:00,,0826.5,5.01,0.00,28.8,26.8,00.0,37.8,30.6,19.0,0034.90,0021.44
2021-08-16 21:52:00,,0826.5,4.99,0.00,28.9,27.2,00.0,37.9,30.7,18.8,0034.50,0021.42
2021-08-16 21:53:00,,0826.4,5.00,0.00,28.9,27.6,00.0,37.9,30.9,18.6,0032.94,0021.36
2021-08-16 21:54:00,,0826.5,5.01,0.00,29.0,27.9,00.0,37.9,31.0,18.4,0032.11,0021.47
2021-08-16 21:55:00,,0826.5,4.99,0.00,29.1,27.6,00.0,37.9,30.9,18.4,0032.49,0021.53
2021-08-16 21:56:00,,0826.5,5.01,0.00,29.0,26.1,00.0,37.9,30.4,18.3,0032.90,0021.56
2021-08-16 21:57:00,,0826.5,4.99,0.00,28.8,25.7,00.0,37.9,30.2,18.5,0032.66,0021.65
2021-08-16 21:58:00,,0826.5,4.99,0.00,28.8,26.1,00.0,37.9,30.4,18.7,0031.63,0021.71
2021-08-16 21:59:00,,0826.4,5.00,0.00,28.8,26.5,00.0,37.9,30.5,18.7,0031.75,0021.75
